Regional Weather Roundup
Issued by NWS

Home | Current Version | Previous Version | Text Only | Print | Product List | Glossary On
Versions: 1 2 3 4 5 6 7 8 9 10 11 12 13 14 15 16 17 18 19 20 21 22 23 24 25 26 27 28 29 30 31 32 33 34 35 36 37 38 39 40 41 42 43 44 45 46 47 48 49 50
000
ASCA42 TJSJ 070810
RWRPR
PUERTO RICO/U.S. VIRGIN ISLANDS HOURLY WEATHER ROUNDUP
NATIONAL WEATHER SERVICE SAN JUAN PR
400 AM AST WED DEC 07 2016

PRZ001>002-007>008-010-070900-
PUERTO RICO

CITY           SKY/WX    TMP DP  RH WIND       PRES   REMARKS
SAN JUAN LMM   PTCLDY    79  75  89 E6        29.99S
CEIBA          MOCLDY    79  75  89 E7        30.00F
$$

VIZ001>002-070900-
U.S. VIRGIN ISLANDS

CITY           SKY/WX    TMP DP  RH WIND       PRES   REMARKS
CHARLOTTE AMA    N/A    N/A N/A N/A MISG      29.97F
CHRISTIANSTED  CLEAR     75  72  88 NE6       29.98S
$$

HOURLY WEATHER ROUNDUP FOR THE NEWS MEDIA

CITY           SKY/WX    TMP DP  RH WIND       PRES   REMARKS
ORLANDO        CLOUDY    66  65  96 W7        29.99R
NEW YORK       LGT RAIN  43  38  82 NE10      29.86R
NEWARK         LGT RAIN  39  38  96 N12       29.87R FOG     WCI  32
CHICAGO        PTCLDY    26  18  71 W15       30.00R WCI  14
HARTFORD       LGT RAIN  38  34  85 NE7       29.91F WCI  33
BOSTON         LGT RAIN  40  35  83 E16       29.94F WCI  31
DALLAS         PTCLDY    45  36  70 E5        30.06S
PHILADELPHIA   LGT RAIN  42  39  89 N12       29.87
LOS ANGELES    MOCLDY    54  51  90 NE3       30.02S
WASHINGTON DC  CLOUDY    40  37  89 NW8       29.92R WCI  34


USA.gov is the U.S. government's official web portal to all federal, state and local government web resources and services.